Location: Byhalia Creek
(34.8270°N, 89.8040°W)
Time: 16:19:33
(UTC+00:00)

CZ-3 Stage 3 - Pass Details

Date: 22 April 2026
Orbit: 212 x 9225 km, 30.8° (Epoch: 8 May)

Event Time Altitude Azimuth Distance (km) Brightness Sun altitude
Exits shadow 09:28:47 32° 255° (WSW) 2,032 3.6 -21.4°
Maximum altitude 09:32:51 72° 179° (S) 1,954 3.8 -20.7°
Drops below altitude 10° 09:59:09 10° 102° (ESE) 9,370 8.3 -16.0°
Sets 10:11:50 0° 102° (ESE) 12,087 9.0 -13.7°
